Regional Weather Roundup
Issued by NWS

Home | Current Version | Previous Version | Graphics & Text | Print | Product List | Glossary On
Versions: 1 2 3 4 5 6 7 8 9 10 11 12 13 14 15 16 17 18 19 20 21 22 23 24 25 26 27
000
ASUS45 KTFX 260910
RWRMT
MONTANA REGIONAL WEATHER ROUNDUP
NATIONAL WEATHER SERVICE GREAT FALLS MT
300 AM MDT MON JUN 26 2017

NOTE: "FAIR" INDICATES FEW OR NO CLOUDS BELOW 12000 FEET WITH NO
SIGNIFICANT WEATHER AND/OR OBSTRUCTIONS TO VISIBILITY.

MTZ001>007-043-261000-
WEST OF THE DIVIDE

CITY           SKY/WX    TMP DP  RH WIND       PRES   REMARKS
KALISPELL      CLEAR     52  49  89 CALM      30.00F
MISSOULA       CLEAR     61  47  59 E5        30.05F
BUTTE          CLEAR     53  39  59 S3        30.22F
MULLAN PASS    PTCLDY    65  38  36 SE9       30.16F
DEER LODGE       N/A     54  43  66 CALM      30.18F
EUREKA           N/A     55  45  67 CALM      29.97F
HAMILTON         N/A     59  45  58 S7        30.07F
$$

MTZ008-052>055-261000-
SOUTHWEST MONTANA

CITY           SKY/WX    TMP DP  RH WIND       PRES   REMARKS
BOZEMAN        CLEAR     57  41  55 SW7       30.17S
DILLON         CLOUDY    57  36  45 SE7       30.20F
W YELLOWSTONE  CLOUDY    37  34  87 CALM      30.34S
ENNIS          CLEAR     48  39  71 E8        30.27S
THREE FORKS      N/A     47  42  82 CALM      30.14S
$$

MTZ009-010-012-014-046-048-049-054-261000-
EAST SLOPES AND CENTRAL MONTANA

CITY           SKY/WX    TMP DP  RH WIND       PRES   REMARKS
CUT BANK       PTCLDY    53  41  63 SE8       30.08F
GREAT FALLS    PTCLDY    60  41  49 SE6       30.08F
MALMSTROM AFB  CLEAR     56  42  58 S7        30.08F
HELENA         CLEAR     61  43  51 W5        30.12F
CHOTEAU          N/A     55  41  58 CALM      30.11F
$$

MTZ011-013-016-021-045-047-050-051-261000-
NORTH CENTRAL MONTANA

CITY           SKY/WX    TMP DP  RH WIND       PRES   REMARKS
HAVRE          CLEAR     56  39  53 E12       30.07F
LEWISTOWN      CLEAR     52  35  52 SE7       30.16F
N BAR RANCH      N/A     50  28  43 CALM      30.23F
CHINOOK          N/A     55  41  58 E12       30.10F
FORT BENTON      N/A     61  37  41 MISG      30.08F
$$

MTZ017>020-022>027-061-062-261000-
NORTHEAST MONTANA

CITY           SKY/WX    TMP DP  RH WIND       PRES   REMARKS
GLASGOW        CLEAR     55  40  56 E13       30.17S
JORDAN           N/A     46  30  53 CALM      30.16F
SIDNEY         CLEAR     50  41  71 E3        30.23S
WOLF POINT     CLEAR     49  39  68 NE5       30.20F
MALTA          CLEAR     55  39  54 NE9       30.14F
PLENTYWOOD       N/A     52  43  71 CALM      30.23F
POPLAR           N/A     48  41  76 N6        30.21F
$$

MTZ028>42-056>058-261000-
SOUTHCENTRAL AND SOUTHEAST MONTANA

CITY           SKY/WX    TMP DP  RH WIND       PRES   REMARKS
BAKER          CLEAR     48  37  65 SE10      30.23F
BILLINGS       CLEAR     62  33  33 NE5       30.16F
LIVINGSTON     CLEAR     45  38  76 W6        30.21S
MILES CITY     CLEAR     57  33  40 SE7       30.17F
BIG TIMBER     CLEAR     48  39  71 CALM      30.22F
ROUNDUP          N/A     52  28  39 W6        30.07F
$$

REGIONAL REPORTS...DAKOTAS

CITY           SKY/WX    TMP DP  RH WIND       PRES   REMARKS
WILLISTON      CLEAR     47  42  83 CALM      30.24F
MINOT          CLEAR     46  40  79 CALM      30.24S
DICKINSON      CLEAR     45  40  82 SE9       30.23S
BEACH            N/A     43  39  87 S7        30.26S
CROSBY           N/A     43  43 100 CALM      30.25F
TIOGA            N/A     41  41 100 NE3       30.27S
WATFORD CITY     N/A     45  41  87 CALM      30.24S
BISMARCK       CLEAR     44  42  93 E3        30.25F
GRAND FORKS    CLEAR     44  42  93 W7        30.19F
FARGO          CLEAR     42  38  85 CALM      30.21S
BUFFALO SD       N/A     51  40  65 SE7       30.19S
RAPID CITY     CLEAR     52  37  56 W3        30.26F
$$

REGIONAL REPORTS...WYOMING/IDAHO/WASHINGTON

CITY           SKY/WX    TMP DP  RH WIND       PRES   REMARKS
GILLETTE       CLEAR     49  33  54 S8        30.24F
SHERIDAN       CLEAR     47  39  74 N5        30.19F
BUFFALO WY     CLEAR     54  34  46 S7        30.25F
CODY           CLEAR     58  38  47 S12       30.24F
YELLOWSTONE LA   N/A     37  33  85 NW3       30.44S
IDAHO FALLS    CLEAR     52  48  86 N7        30.17F
SALMON         CLEAR     54  43  66 CALM      30.11R
BOISE          CLEAR     73  44  35 E9        29.96S
SPOKANE        PTCLDY    68  50  52 CALM      29.91S
$$

REGIONAL REPORTS...ALBERTA

CITY           SKY/WX    TMP DP  RH WIND       PRES   REMARKS
EDMONTON       CLEAR     63  48  59 S18G29    29.91F
CALGARY        PTCLDY    59  46  63 SE8       29.97F
LETHBRIDGE     PTCLDY    66  41  39 S18G25    29.97F
MEDICINE HAT   CLEAR     57  41  54 NE8       30.03F
WATERTON GATE    N/A     61  41  48 S12         N/A
MILK RIVER       N/A     59  43  55 S10         N/A
ONEFOUR          N/A     54  39  58 E14         N/A
$$

REGIONAL REPORTS...SASKATCHEWAN

CITY           SKY/WX    TMP DP  RH WIND       PRES   REMARKS
SWIFT CURRENT  CLEAR     48  39  71 SE13G18   30.17F
REGINA         CLEAR     45  36  70 E9        30.23F
SASKATOON      CLEAR     50  39  66 S7        30.20F
CYPRESS HILLS    N/A     50  34  53 SE10        N/A
VAL MARIE        N/A     52  37  58 SE13        N/A
ROCKGLEN         N/A     48  39  71 SE10        N/A
$$




USA.gov is the U.S. government's official web portal to all federal, state and local government web resources and services.